Track LANDSAT 1 (ERTS 1) now! 10-day predictions LANDSAT 1 (ERTS 1) is classified as:
1 06126U 72058A 25199.76176372 .00000269 00000-0 22325-3 0 9996 2 06126 99.3656 218.3586 0009178 84.0154 276.2053 13.97796051701376